Temp
20 20 20 19 19 19 19 19 19 19 19 18 18 18 18 18 17 17 17 17 17 17 17 17 18 17 18 17 17 17 18 18 18 19 18 18 17 17 16 16 17 17 17
20 20 20 19 19 19 19 19 19 19 19 18 18 18 18 18 18 17 17 17 17 17 17 17 17 17 17 17 17 17 18 18 19 18 18 17 17 17 17 17 17 17 17
21 20 20 19 19 19 19 19 19 19 18 18 18 18 18 17 18 17 17 17 17 17 17 16 17 16 17 17 17 18 18 19 19 18 18 18 17 17 17 17 17 17 17
21 20 19 20 19 20 20 20 19 18 18 18 18 18 18 18 18 17 17 17 16 16 16 16 16 17 18 17 17 17 18 18 18 18 18 18 17 17 17 16 17 17 17
21 20 20 20 19 19 19 19 19 18 18 18 18 18 18 18 18 17 17 16 16 16 16 16 16 17 17 17 17 17 18 18 18 18 18 18 18 17 17 17 17 17 18
21 20 20 19 19 19 19 19 19 18 18 18 18 18 18 18 18 17 17 17 17 16 16 16 16 16 17 17 17 18 18 18 18 19 18 18 18 18 17 17 17 17 17
21 21 20 20 20 19 19 19 18 18 18 18 18 18 18 17 17 17 17 17 17 17 16 16 16 17 17 17 17 17 18 18 19 18 18 19 18 18 17 17 17 17 17
22 21 20 20 20 19 19 19 19 18 17 17 17 17 17 18 18 17 17 17 17 17 17 17 17 17 17 17 17 18 18 18 18 17 19 18 18 17 17 17 16 17 16
22 21 20 20 20 20 19 19 19 19 17 17 17 18 18 18 19 17 17 17 17 18 17 17 17 17 17 17 18 18 18 18 18 17 18 18 17 17 16 16 16 16 16
22 22 21 20 20 19 19 19 19 19 18 18 18 18 18 18 18 17 17 17 17 18 17 17 17 17 18 18 18 18 18 18 18 18 18 17 17 17 16 16 16 15 15
21 22 21 20 19 19 19 19 19 19 18 18 18 18 18 18 18 17 17 17 18 17 17 17 17 18 17 17 18 18 18 18 17 17 17 17 17 15 15 15 15 15 14
21 21 21 20 19 19 19 19 18 18 18 18 18 18 18 18 18 18 17 17 17 17 17 17 17 17 17 17 17 17 17 17 17 17 17 16 16 15 14 14 14 14 14
24 22 21 21 20 20 19 19 18 18 18 18 19 19 19 18 17 17 17 18 17 17 17 17 17 17 17 17 17 17 17 16 16 16 16 16 14 14 13 13 13 13 13
24 24 22 21 21 20 20 20 20 19 18 18 19 19 18 18 18 18 18 18 17 17 17 17 17 17 17 17 17 16 16 16 16 15 15 15 13 13 13 12 12 12 12
24 24 24 23 21 20 20 21 20 20 19 19 19 19 19 19 19 18 18 17 17 17 17 17 17 17 17 16 16 16 16 15 15 14 14 14 13 12 12 12 11 11 11
25 25 24 24 23 21 21 21 20 20 20 19 19 19 19 19 19 18 18 17 17 17 17 17 17 16 16 16 15 15 15 15 15 14 13 13 13 12 11 11 11 11 11
26 25 24 24 23 23 22 22 22 21 20 20 20 20 20 19 19 18 18 18 17 17 17 16 16 16 15 15 15 15 15 14 14 13 13 13 12 12 11 10 10 10 10
26 25 25 24 24 23 22 22 22 21 21 20 21 21 20 20 19 18 18 18 17 17 16 16 16 15 15 14 14 14 14 14 14 13 13 12 12 11 11 11 10 10 9
26 26 25 24 24 23 23 22 22 21 21 21 21 21 20 20 19 19 18 17 17 16 16 16 15 15 14 14 14 14 14 13 13 13 13 12 12 11 11 10 10 10 9
26 26 26 24 24 23 23 22 22 21 21 21 21 21 20 19 20 19 18 17 16 16 15 15 15 14 13 13 13 13 13 13 13 13 12 12 12 11 11 10 10 9 9
25 26 26 25 23 22 21 20 21 20 21 21 21 21 20 19 20 18 17 16 16 15 15 15 14 13 13 13 13 13 12 12 12 12 12 12 12 11 10 10 10 9 9
24 25 25 24 23 22 22 21 20 20 19 21 20 19 19 19 19 17 17 16 15 15 14 14 13 12 11 12 12 10 8 11 12 12 12 12 11 11 10 10 9 9 8
23 24 25 25 24 22 22 20 20 19 17 17 18 19 18 18 17 17 16 16 15 15 14 14 13 13 11 10 11 11 8 8 7 11 11 10 10 10 9 9 8 8 8
22 23 24 25 24 23 22 20 20 17 15 16 17 17 17 16 16 15 15 15 15 14 14 13 12 12 12 11 10 10 10 9 6 6 10 10 9 9 9 8 8 7 7
21 23 23 23 24 23 21 21 19 16 16 15 14 14 15 14 14 14 15 14 14 13 13 13 12 11 11 10 10 9 9 9 8 5 4 6 9 8 8 7 7 6 6
20 20 21 22 23 22 21 20 18 16 15 13 12 12 12 13 13 14 14 13 13 13 13 12 11 11 10 9 9 8 8 7 6 6 3 3 4 5 5 6 5 5 5
Height
786 787 790 793 795 797 799 801 803 805 808 810 811 813 814 815 817 818 818 818 818 819 820 820 820 819 818 821 822 822 823 823 823 824 824 825 825 825 825 825 825 825 825
783 787 790 792 794 797 800 802 804 806 807 810 812 813 815 816 817 818 819 819 819 819 820 821 821 821 821 822 822 822 823 823 824 824 824 825 825 825 825 825 825 825 826
783 788 791 792 794 797 800 802 804 806 807 810 812 814 816 817 818 819 819 819 819 820 821 821 821 821 822 823 823 823 823 823 824 825 825 825 826 826 825 826 825 825 825
782 787 790 793 794 796 798 801 803 805 808 810 811 813 816 818 819 820 820 820 821 821 821 821 822 821 822 823 823 824 824 824 825 826 826 825 826 827 826 826 825 825 825
782 787 790 792 794 797 798 800 802 805 807 810 812 814 816 818 819 820 821 821 821 821 821 821 821 822 823 823 824 824 824 825 825 826 826 826 826 826 827 826 825 824 824
782 787 790 792 794 796 798 800 802 804 807 810 812 814 816 818 819 820 820 821 821 821 822 822 823 823 823 824 824 825 824 825 826 825 826 826 827 826 826 826 825 825 823
781 785 788 791 794 796 798 799 802 804 807 809 812 815 816 817 818 820 820 820 820 821 822 822 823 823 824 824 825 826 826 825 825 825 826 826 826 826 826 826 824 824 823
779 784 788 790 793 796 797 799 802 804 806 808 810 813 815 816 817 818 819 820 820 821 821 822 822 823 824 825 825 825 825 825 826 825 824 825 825 825 825 825 825 824 822
778 782 787 790 792 795 797 798 800 802 806 808 811 812 814 816 815 816 818 820 819 820 821 822 823 824 824 825 825 825 825 825 825 825 824 824 824 824 825 824 824 824 823
779 781 784 788 791 794 796 798 800 802 803 807 810 811 813 814 815 817 817 819 820 820 821 822 823 824 824 825 825 825 825 825 824 824 824 824 824 824 824 824 823 823 824
777 780 783 787 790 792 795 797 799 802 804 805 807 810 812 814 815 817 818 819 819 820 822 823 823 823 825 824 825 824 825 824 824 824 824 824 824 824 825 825 823 824 825
775 778 780 784 787 791 794 796 798 801 803 805 807 809 811 814 815 816 818 819 820 820 821 822 823 823 823 824 824 823 824 823 823 823 823 824 824 824 825 825 824 824 826
773 775 778 781 784 787 790 793 796 798 801 805 807 808 810 812 814 815 817 818 819 821 821 822 822 824 824 822 823 822 823 822 821 822 824 824 825 825 825 826 825 824 826
769 771 774 778 781 783 786 789 792 796 799 801 804 807 809 810 811 813 815 816 818 820 821 821 822 822 822 821 822 821 822 820 821 821 823 822 825 825 825 825 826 826 826
766 767 770 773 776 780 781 785 788 792 795 798 801 803 806 808 809 811 813 814 816 818 820 821 821 821 820 820 821 820 821 820 821 821 822 823 824 824 824 824 826 825 826
759 762 766 769 771 775 777 781 784 787 792 794 797 800 804 805 806 808 810 813 815 816 817 819 819 820 819 819 819 819 820 820 820 821 822 822 824 824 823 824 824 825 824
756 756 760 763 766 769 772 776 780 785 788 791 793 797 799 802 804 806 808 811 813 815 816 817 817 818 818 818 818 818 819 820 821 821 821 822 823 823 822 822 823 823 822
752 753 754 757 760 763 768 772 775 780 783 786 790 793 796 797 800 803 805 808 810 813 815 816 816 816 817 817 817 817 818 819 820 820 822 822 822 822 822 822 822 822 822
746 748 751 751 753 756 761 767 770 775 780 782 785 789 792 794 797 800 803 805 808 811 813 814 815 815 815 815 816 816 817 817 818 820 821 822 822 822 822 822 822 821 821
740 741 745 747 747 750 755 760 766 771 775 779 782 784 787 790 794 797 800 803 806 808 810 812 813 814 814 814 815 815 816 816 817 819 820 820 820 820 821 821 821 821 820
734 736 737 740 742 744 749 755 761 764 769 772 776 779 782 787 790 793 795 799 803 805 807 810 811 814 815 814 814 815 815 817 817 817 818 819 819 819 819 819 820 819 818
729 730 732 734 737 737 740 745 750 758 764 766 770 774 777 783 786 789 792 795 800 802 804 807 810 812 814 814 814 815 818 818 816 816 816 817 818 818 819 819 818 817 815
722 724 726 728 732 733 734 738 743 749 757 763 765 768 773 778 782 786 791 792 796 799 802 805 807 810 812 814 814 814 817 820 818 815 815 816 816 817 818 817 816 815 813
717 720 721 723 726 729 728 730 733 739 748 753 757 760 766 775 779 784 789 792 792 797 799 802 806 808 809 811 814 814 814 816 819 819 815 814 814 815 815 814 813 812 811
712 714 717 718 718 721 723 723 728 735 742 747 755 760 763 770 778 782 786 791 792 795 797 800 802 805 807 809 811 812 814 815 815 817 818 813 812 812 812 811 810 808 807
709 710 710 711 712 713 715 719 722 726 735 745 753 758 762 766 775 780 784 788 791 793 795 799 800 803 806 808 809 811 812 813 814 815 817 813 811 807 808 807 806 805 805
Wind_Speed
25 26 22 21 20 19 17 15 14 14 13 12 13 15 15 15 15 14 13 12 11 11 11 12 13 12 12 16 13 11 8 7 8 8 7 9 10 9 8 7 8 9 4
30 26 25 23 21 19 17 16 14 13 13 12 13 14 15 15 14 13 13 12 12 12 11 11 13 14 16 14 12 9 7 7 7 9 7 5 7 7 7 6 4 6 5
31 26 26 24 23 21 18 15 13 11 12 14 14 14 16 16 14 13 14 13 13 13 12 11 12 12 12 11 9 7 6 8 10 9 7 6 6 5 6 5 5 4 3
31 28 27 23 22 21 19 16 13 14 14 14 13 16 17 15 15 15 14 14 14 13 13 11 11 9 8 7 7 7 8 11 10 9 8 8 6 6 6 4 3 1 4
30 28 27 24 21 19 18 17 16 17 17 18 16 16 16 14 14 14 13 13 13 13 12 12 11 10 9 8 7 7 8 8 7 6 6 5 3 6 7 7 5 3 1
28 27 27 24 21 19 18 16 16 18 19 18 19 18 17 15 13 12 11 10 11 11 11 10 9 9 9 8 7 6 7 5 6 6 5 4 5 4 7 5 5 4 3
31 27 28 24 20 18 18 16 16 19 20 18 17 16 14 13 12 11 8 8 9 9 9 9 8 9 9 8 7 6 5 5 3 5 2 1 2 5 6 5 8 8 9
32 29 28 24 21 19 18 17 16 18 20 18 17 17 13 11 10 11 11 9 9 8 8 9 9 9 7 5 5 5 5 4 5 7 4 5 2 3 4 5 7 7 8
32 30 27 25 21 19 18 17 17 18 20 19 17 15 12 8 8 15 13 10 9 8 8 8 7 6 5 5 5 6 6 6 6 5 5 5 5 6 5 6 7 9 11
28 26 27 26 24 22 19 17 17 18 20 21 17 14 12 10 11 15 14 11 8 8 8 7 6 6 6 8 8 6 5 7 6 4 4 6 7 6 5 9 8 11 11
27 25 27 27 25 23 20 18 17 17 18 20 19 15 13 12 12 13 11 9 8 8 7 6 6 7 5 6 6 3 3 5 5 2 3 5 7 10 10 10 11 11 10
27 27 27 28 27 23 21 20 18 17 17 19 19 17 15 13 13 12 11 9 8 8 6 6 7 6 5 4 3 3 3 3 3 3 3 5 8 10 10 10 11 11 10
27 26 30 29 27 26 24 22 20 20 18 16 16 16 16 16 16 13 11 11 9 7 9 8 7 3 2 3 2 2 4 3 2 3 4 5 10 8 10 11 11 11 10
30 30 28 31 30 30 27 25 22 22 21 19 16 14 17 15 19 17 11 13 11 9 7 8 6 3 3 1 1 2 2 3 1 3 4 4 10 10 9 10 10 10 10
31 33 32 30 33 34 30 27 24 22 23 22 22 20 18 20 16 17 14 15 13 11 10 8 6 4 2 0 1 2 1 3 1 3 4 3 6 8 9 9 9 9 10
30 35 35 34 33 33 34 29 25 24 24 24 24 26 23 17 17 20 19 20 16 14 11 8 5 3 1 1 2 2 1 3 1 2 4 3 3 3 5 7 8 9 9
19 30 38 36 35 34 34 26 25 24 24 28 28 25 22 18 20 21 24 19 15 13 10 8 6 3 2 0 1 1 1 2 2 4 5 5 4 4 5 5 7 9 9
24 19 38 39 38 34 32 30 29 27 29 26 26 24 23 24 25 27 23 18 16 13 9 7 5 4 1 1 0 2 1 2 4 5 4 4 1 1 3 5 7 8 9
35 28 30 41 42 40 39 35 32 29 27 29 30 27 27 26 26 24 20 19 17 14 10 7 6 4 1 1 0 1 2 4 7 6 5 3 3 4 5 5 7 8 10
36 36 29 36 42 43 41 38 32 31 30 30 32 30 29 28 24 22 21 20 19 16 12 9 7 5 3 4 1 2 2 4 8 7 6 3 3 4 5 5 7 10 14
34 36 32 26 39 40 35 31 33 32 34 31 32 32 31 31 27 26 26 24 19 17 14 11 9 6 5 4 2 3 5 4 4 4 6 6 4 2 2 4 8 14 17
23 24 21 20 35 42 39 39 31 36 32 34 34 32 32 32 30 28 29 26 22 20 17 14 11 8 4 7 3 2 2 1 1 4 5 5 2 1 4 6 11 12 15
26 27 31 27 22 37 41 36 29 34 30 29 33 36 35 33 29 30 31 29 25 21 19 15 12 9 7 5 7 3 2 2 3 1 3 6 2 3 4 8 11 16 16
27 23 32 34 30 32 37 41 41 33 27 28 40 39 36 31 31 32 30 27 26 23 21 17 13 10 8 7 5 5 4 2 2 3 2 4 5 6 14 18 18 15 16
25 26 26 33 36 29 38 41 42 32 30 33 36 34 34 32 31 33 30 27 26 24 21 18 15 12 10 9 6 4 2 2 2 2 3 4 11 20 20 14 22 19 15
12 13 17 22 33 33 39 42 41 40 38 33 33 34 33 35 33 31 29 28 25 24 22 18 16 12 10 8 7 5 4 3 2 2 2 4 9 12 16 19 16 12 16
Wind_Direction
155 155 152 145 141 135 131 128 127 127 129 129 127 123 119 113 103 93 87 86 88 96 92 82 86 94 104 113 104 97 77 62 49 44 66 67 61 61 64 73 89 72 54
158 155 152 145 139 134 131 128 126 131 137 134 134 131 127 118 108 97 88 85 89 100 103 94 88 94 97 101 98 83 60 48 58 82 79 70 69 61 54 78 68 65 58
155 154 152 148 143 140 136 132 130 132 135 138 142 145 135 125 114 106 99 96 97 102 107 105 99 95 93 89 84 75 62 69 94 77 69 73 88 57 48 55 73 59 47
156 156 154 151 147 146 143 138 132 129 129 134 140 148 132 125 121 115 106 103 101 103 104 100 97 101 101 95 96 88 86 100 99 83 90 80 110 44 33 43 87 2 46
158 159 159 154 153 149 146 139 135 136 134 137 129 132 134 134 128 121 115 109 109 107 101 97 95 94 97 98 100 88 92 107 93 89 115 95 82 38 29 32 34 36 1
158 164 163 160 158 154 150 143 141 144 142 140 136 133 136 138 138 133 126 110 107 106 101 96 95 97 97 93 90 82 90 102 102 66 104 72 34 26 27 6 344 328 335
160 164 166 166 163 160 155 149 147 148 148 147 147 145 143 148 151 154 156 130 119 113 107 104 98 98 94 89 84 79 74 87 66 56 120 85 14 2 23 358 36 29 31
164 168 169 169 167 165 160 153 151 153 155 153 149 150 155 158 166 168 167 150 132 121 115 114 110 104 98 85 73 62 59 58 70 60 132 135 108 39 45 24 25 31 37
166 167 170 173 172 170 168 161 158 157 163 165 162 162 160 157 168 170 166 157 145 131 124 119 113 106 96 79 66 63 73 56 15 107 98 86 57 57 49 48 69 66 52
165 173 175 177 176 175 172 169 165 165 167 175 174 175 164 149 141 157 161 161 155 141 135 127 117 108 96 85 66 59 66 65 77 90 69 57 43 49 69 85 76 71 64
169 174 178 180 180 180 176 174 172 171 176 175 181 183 174 162 159 162 167 170 161 149 145 133 121 118 120 101 76 62 80 59 36 33 357 18 56 92 83 89 73 66 66
170 177 180 187 186 184 184 180 177 173 177 185 190 191 187 177 174 174 171 173 163 154 148 135 129 122 111 103 84 71 1 8 351 28 43 28 94 94 90 78 69 63 66
179 186 187 187 189 189 188 186 184 182 181 182 191 198 190 184 189 185 183 176 166 160 137 138 141 134 126 108 69 37 38 31 343 37 64 75 102 94 83 72 68 71 60
190 191 195 194 188 190 190 188 189 192 194 193 188 184 188 200 183 185 191 174 161 162 155 156 150 151 146 80 10 28 32 66 45 87 99 93 105 98 84 70 65 60 56
198 197 193 193 191 190 194 191 194 197 199 200 196 189 190 183 194 202 186 173 163 167 172 178 180 183 203 22 15 14 47 67 64 112 101 99 142 106 87 74 60 54 44
205 201 198 194 195 198 201 194 196 205 204 202 201 198 193 203 191 190 187 169 173 172 175 192 204 204 222 358 87 72 54 112 120 126 114 96 127 105 80 67 51 37 31
226 204 200 197 195 197 199 205 205 204 207 206 194 196 198 198 194 189 174 176 176 185 192 190 177 169 195 106 131 117 84 155 139 159 128 125 114 94 71 47 31 19 20
256 228 201 196 195 195 199 205 206 205 206 210 202 200 204 196 199 187 181 181 181 188 191 184 177 163 146 5 95 141 171 158 166 152 149 153 156 354 4 350 0 10 13
254 248 210 201 199 202 204 206 208 206 205 212 201 204 197 195 190 190 187 185 186 186 184 175 155 165 113 9 174 172 210 230 179 178 200 208 306 322 336 339 333 346 350
243 248 239 211 202 202 206 204 205 205 205 210 205 205 206 194 202 205 189 186 187 180 175 168 154 127 62 1 141 206 154 143 170 194 194 228 264 290 329 329 323 332 336
237 240 239 223 204 194 194 189 199 195 204 207 205 211 201 196 201 197 186 188 188 182 174 166 150 131 74 35 105 99 168 161 194 200 214 241 250 236 275 298 315 325 329
250 238 241 241 214 198 195 196 195 200 198 201 200 196 199 199 202 190 187 185 185 176 169 167 165 147 91 49 84 86 36 345 224 214 222 198 212 267 282 309 324 327 328
253 251 244 243 233 202 200 190 183 189 184 182 185 190 193 197 193 189 190 186 181 181 171 168 167 165 146 85 65 107 82 217 316 48 175 148 39 345 323 338 332 326 322
261 263 244 241 239 226 202 190 186 178 172 186 185 187 185 192 187 189 189 187 178 174 167 161 158 159 147 138 116 74 82 110 141 330 213 230 313 317 322 316 317 322 319
257 249 252 244 237 228 211 198 187 178 183 186 186 180 179 179 184 186 188 185 175 171 166 164 157 154 154 144 149 142 137 178 221 157 271 293 289 304 313 312 314 317 326
338 323 264 245 242 232 209 201 185 182 183 180 182 180 175 172 180 184 185 183 177 172 168 165 156 152 146 144 145 153 168 174 186 190 255 277 289 315 310 318 326 329 328